SLS DEB

基本信息
目录编号:
55907
目录名称:
SLS DEB
国际标识:
2022-156G
轨道中心:
EARTH
物体状态:
在轨
发射日期:
2022-11-16 UTC
轨道信息
数据来源: 国际轨道数据
星历时间: 2026-07-13T09:19:25+0800
半长轴: 7797.679km
偏心率: 0.1334865
轨道倾角: 30.552°
近地点辐角: 211.845°
升交点赤经: 114.953°
平近点角: 139.416°
近地点: 378.657km
远地点: 2460.427km
周期: 114.211分钟
每日圈数: 12.60825
详细信息
发射场:
AFETR
轨道高度:
LEO
数据来源:
AOE Integration Group
参考系:
TEME
时间系统:
UTC
历元类型:
SGP4
2D轨道图
3D轨道图
轨道高度分析图
轨道倾角分析图
轨道综合分析图
查看轨道综合分析图